Prox-1
1 44339U 19036A   25048.36473618  .00021295  00000-0  29725-2 0  9995
2 44339  23.9981  76.9913 0007506 227.0894 132.8973 14.76152604301397
SONATE
1 44400U 19038Q   25048.54276825  .00076906  00000-0  97225-3 0  9997
2 44400  97.7102  63.6367 0006818 311.5591  48.5079 15.59253935311958
Taurus 1
1 44530U 19059C   25048.82586993  .00012812  00000-0  25051-2 0  9998
2 44530  98.5916 183.2249 0009077  18.3191 341.8335 14.62978137287586
Duchifat 3
1 44854U 19089C   25048.84384558  .00045947  00000-0  13425-2 0  9992
2 44854  36.9498 339.4654 0009294 325.5238  34.4911 15.34295070285702
TO-108
1 44881U 19093C   25048.80545932  .00002337  00000-0  27891-3 0  9997
2 44881  97.8025 126.7775 0012838 235.2041 124.7967 14.85146039279489
FloripaSat 1
1 44885U 19093G   25048.76152822  .00011002  00000-0  97880-3 0  9992
2 44885  97.8199 136.2906 0010916 217.3401 142.7062 14.96206068280011
RS-44
1 44909U 19096E   25048.44322322  .00000030  00000-0  77192-4 0  9995
2 44909  82.5222 301.8048 0217015 197.5254 161.8277 12.79738403240341
UPMSat 2
1 46276U 20061E   25048.23682730  .00057573  00000-0  91796-3 0  9996
2 46276  97.2613 120.0878 0000156 239.4302 120.6936 15.53050659247948
SALSAT
1 46495U 20068K   25048.48788358  .00014079  00000-0  65649-3 0  9998
2 46495  97.8496  21.6333 0012011 179.9672 180.1564 15.19930314241487
CubeSX-Sirius-HSE
1 47951U 21022V   25048.79748367  .00092843  00000-0  14756-2 0  9994
2 47951  97.4329 316.1912 0007632   7.4429 352.6935 15.52968803216299
CubeSX-HSE
1 47952U 21022W   25048.84113046  .00096996  00000-0  15131-2 0  9992
2 47952  97.4329 316.4179 0007256   1.7879 358.3399 15.53474783216316
KSU-Cubesat
1 47954U 21022Y   25048.68557043  .00276599  00000-0  18913-2 0  9995
2 47954  97.4306 320.4060 0004307  41.9056 318.2537 15.73976909216277
GRBAlpha
1 47959U 21022AD  25048.80315461  .00090088  00000-0  14149-2 0  9994
2 47959  97.4314 316.5374 0007604   6.6682 353.4671 15.53309581215139
Orbicraft-Zorkiy
1 47960U 21022AE  25048.84560955  .00165574  00000-0  17036-2 0  9991
2 47960  97.4308 319.7030 0005093  16.3131 343.8291 15.64318554216005
TUBIN
1 48900U 21059X   25048.79079906  .00047896  00000-0  91088-3 0  9997
2 48900  97.6671 210.0294 0005169 290.9273  69.1423 15.48087257202679
LEDSAT
1 49069U 21073D   25048.75391895  .00055077  00000-0  11704-2 0  9996
2 49069  97.4027 126.9211 0012947 127.4290 232.8139 15.44737503194088
CUTE
1 49263U 21088D   25048.65753209  .00058497  00000-0  13912-2 0  9990
2 49263  97.4639 122.0402 0008263 289.6543  70.3812 15.41412679187154
TeikyoSat 4
1 49396U 21102B   25048.62362270  .00003509  00000-0  23923-3 0  9993
2 49396  97.4271  91.0494 0013557 150.9423 209.2562 15.06792435179684
Z-Sat
1 49399U 21102E   25048.76977473  .00007429  00000-0  42485-3 0  9997
2 49399  97.3977  93.6486 0020033 128.7265 231.5761 15.12783229180063
KOSEN 1
1 49402U 21102H   25048.69852408  .00010962  00000-0  54325-3 0  9996
2 49402  97.3887  96.2132 0018161 108.9701 251.3503 15.17774792180300
HO-113
1 50466U 21131B   25048.87590090  .00001381  00000-0  44738-3 0  9998
2 50466  98.5127 138.8019 0005221 109.8235 250.3517 14.40543434165369
IRIS-A
1 51044U 22002BN  25048.16947119  .00099505  00000-0  13046-2 0  9991
2 51044  97.3436 123.2318 0004131 228.5777 131.5124 15.58219227172183
Foresail-1
1 52766U 22057AL  25048.32899883  .00088069  00000-0  11754-2 0  9992
2 52766  97.5987 190.0067 0006467 318.5407  41.5357 15.57769189152244
SNUGLITE 2
1 52899U 22065F   25048.39170857  .00003252  00000-0  64850-3 0  9995
2 52899  98.1484 191.6156 0008574 104.5685 255.6468 14.62633510140081
IO-117
1 53106U 22080B   25042.50223640 -.00000003  00000-0  00000-0 0  9996
2 53106  70.1392 109.3763 0008154  50.6584 309.4797  6.42557620 60646
FO-118
1 54684U 22167C   25048.81314283  .00539714  00000-0  19437-2 0  9999
2 54684  97.6091 212.6824 0009188 304.5750  55.4653 15.87355109122306
SO-120
1 56992U 23084BU  25042.76759540  .17342116  26494-5  33638-3 0  9995
2 56992  97.5047 178.6720 0014759 276.3055  83.6566 16.46134597 93271
UmKA 1 (RS40S)
1 57172U 23091G   25048.87590964  .00011321  00000-0  63975-3 0  9995
2 57172  97.5758 104.8990 0015070   5.8202 354.3202 15.13170286 90570
CubeBel-2 (EU11S)
1 57175U 23091K   25048.89212602  .00016625  00000-0  86705-3 0  9998
2 57175  97.5757 105.4799 0013237  15.5056 344.6579 15.15955973 90614
VERONIKA
1 58261U 23174F   25048.80391481  .00071270  00000-0  15036-2 0  9996
2 58261  97.4272 130.5510 0007046  91.6760 268.5295 15.44942139 71294
KAFASAT
1 58317U 23174BP  25048.52479181  .00203526  00000-0  20416-2 0  9990
2 58317  97.4155 133.6098 0002689  20.1989 339.9376 15.64852347 71497
ENSO
1 58470U 23185J   25048.82278410  .00048242  00000-0  11258-2 0  9993
2 58470  97.3890 121.4320 0009100 124.6242 235.5864 15.42024274 67733
EIRSAT-1
1 58472U 23185L   25048.83443127  .00065649  00000-0  13339-2 0  9997
2 58472  97.3884 122.1382 0007920 125.0004 235.1990 15.46064083 67780
SONATE-2
1 59112U 24043Q   25048.30419548  .00030020  00000-0  10317-2 0  9993
2 59112  97.4974 177.7918 0012226 151.6549 208.5359 15.29983938 53135
MO-122
1 60209U 24125G   25048.33997788  .00029378  00000-0  99678-3 0  9995
2 60209  97.2937 261.5329 0021018 176.0484 184.0927 15.30259476 34758
GRBBeta
1 60237U 24128C   25048.55247969  .00006769  00000-0  53541-3 0  9990
2 60237  61.9919 109.7103 0040923  31.3978 328.9542 15.00888749 33374
Curium One
1 60242U 24128H   25048.66973759  .00010616  00000-0  80160-3 0  9994
2 60242  61.9820 108.9217 0041296  25.9507 334.3642 15.02194019 33407
ROBUSTA-3A
1 60243U 24128J   25048.50871180  .00012559  00000-0  95593-3 0  9997
2 60243  61.9889 109.9723 0039411  23.7584 336.5315 15.01823895 33370
CatSat
1 60246U 24125J   25048.57806108  .00015390  00000-0  56326-3 0  9999
2 60246  97.2729 262.0720 0046654 131.1976 229.3301 15.27081294 32877
HYPERVIEW-1G (RS66S)
1 61772U 24199AP  25048.82729389  .00028777  00000-0  10223-2 0  9996
2 61772  97.3720 278.2806 0014108 229.3104 130.6911 15.28886823 59849
AO-123
1 61781U 24199AY  25048.80615595  .00012643  00000-0  49548-3 0  9995
2 61781  97.3725 278.0157 0015298 230.7937 129.1943 15.25802239 59824
POEM 4 (BGS ARPIT)
1 62461U 24253C   25048.53866419  .00172681  00000-0  76552-3 0  9999
2 62461  55.2203  22.7846 0012303  62.1822 298.0474 15.83344839  7691
